When you browse on this site, cookies collect data to enhance your experience and personalize the content and advertising you see.
Visit our Privacy Policy to learn more. By continuing to use the site, you agree to this use of cookies and data.
  • In Lithuania
  • List of Countries
  • For 7 days
  • Water Temperature
  • Satellite Maps
  • Weather Map
  • Weather Widgets
  • user-avatar
    Login

    Hourly Weather Minaevka

    Today, 19 December, Wednesday

    Time Temperature Precipitation Wind Pressure Humidity
    00:00 -11°C° 0 mm 6 mps 750 mmHg 90%
    01:00 -11°C° 0.2 mm 6 mps 750 mmHg 90%
    02:00 -10°C° 0.2 mm 6 mps 749 mmHg 90%
    03:00 -10°C° 0.2 mm 6 mps 749 mmHg 90%
    04:00 -10°C° 0.2 mm 6 mps 748 mmHg 89%
    05:00 -11°C° 0.2 mm 6 mps 748 mmHg 89%
    06:00 -11°C° 0 mm 5 mps 747 mmHg 89%
    07:00 -11°C° 0.3 mm 5 mps 747 mmHg 89%
    08:00 -11°C° 0.3 mm 5 mps 747 mmHg 90%
    09:00 -11°C° 0.3 mm 6 mps 746 mmHg 91%
    10:00 -11°C° 0.4 mm 5 mps 746 mmHg 90%
    11:00 -11°C° 0.4 mm 5 mps 746 mmHg 90%
    12:00 -11°C° 0 mm 5 mps 746 mmHg 90%
    13:00 -11°C° 0.3 mm 5 mps 746 mmHg 90%
    14:00 -11°C° 0.3 mm 5 mps 746 mmHg 90%
    15:00 -10°C° 0.3 mm 4 mps 746 mmHg 91%
    16:00 -10°C° 0.2 mm 4 mps 746 mmHg 91%
    17:00 -10°C° 0.2 mm 4 mps 746 mmHg 92%
    18:00 -11°C° 0.2 mm 4 mps 746 mmHg 92%
    19:00 -10°C° 0.2 mm 3 mps 747 mmHg 92%
    20:00 -12°C° 0.2 mm 3 mps 747 mmHg 91%
    21:00 -13°C° 0.2 mm 3 mps 747 mmHg 91%
    22:00 -16°C° 0.1 mm 4 mps 748 mmHg 91%
    23:00 -18°C° 0.1 mm 4 mps 749 mmHg 91%

    Tomorrow, 20 December, Thursday

    Time Temperature Precipitation Wind Pressure Humidity
    00:00 -20°C° 0.1 mm 4 mps 750 mmHg 91%
    01:00 -23°C° 0 mm 4 mps 750 mmHg 92%
    02:00 -25°C° 0 mm 4 mps 751 mmHg 93%
    03:00 -27°C° 0 mm 3 mps 752 mmHg 93%
    04:00 -29°C° 0 mm 3 mps 753 mmHg 94%
    05:00 -31°C° 0 mm 3 mps 754 mmHg 94%
    06:00 -32°C° 0 mm 3 mps 755 mmHg 95%
    07:00 -33°C° 0 mm 3 mps 756 mmHg 95%
    08:00 -34°C° 0 mm 3 mps 757 mmHg 95%
    09:00 -35°C° 0 mm 3 mps 758 mmHg 96%
    10:00 -34°C° 0 mm 3 mps 758 mmHg 95%
    11:00 -33°C° 0 mm 3 mps 759 mmHg 94%
    12:00 -34°C° 0 mm 4 mps 759 mmHg 94%
    13:00 -34°C° 0 mm 4 mps 760 mmHg 93%
    14:00 -33°C° 0 mm 3 mps 760 mmHg 93%
    15:00 -33°C° 0 mm 3 mps 761 mmHg 93%
    16:00 -33°C° 0 mm 3 mps 761 mmHg 93%
    17:00 -33°C° 0 mm 3 mps 762 mmHg 94%
    18:00 -33°C° 0 mm 3 mps 762 mmHg 94%
    19:00 -33°C° 0 mm 3 mps 763 mmHg 94%
    20:00 -33°C° 0 mm 3 mps 763 mmHg 94%
    21:00 -33°C° 0 mm 3 mps 764 mmHg 95%
    22:00 -32°C° 0 mm 3 mps 764 mmHg 95%
    23:00 -32°C° 0 mm 3 mps 764 mmHg 95%

    Day after tomorrow, 21 December, Friday

    Time Temperature Precipitation Wind Pressure Humidity
    00:00 -32°C° 0 mm 3 mps 765 mmHg 95%
    01:00 -32°C° 0 mm 3 mps 765 mmHg 95%
    02:00 -32°C° 0 mm 4 mps 765 mmHg 95%
    03:00 -32°C° 0 mm 4 mps 765 mmHg 95%
    04:00 -30°C° 0.1 mm 4 mps 764 mmHg 95%
    05:00 -29°C° 0.1 mm 5 mps 763 mmHg 94%
    06:00 -28°C° 0.1 mm 5 mps 763 mmHg 94%
    07:00 -26°C° 0.2 mm 5 mps 762 mmHg 93%
    08:00 -26°C° 0.2 mm 6 mps 761 mmHg 92%
    09:00 -23°C° 0.2 mm 6 mps 761 mmHg 91%
    10:00 -21°C° 0.2 mm 6 mps 760 mmHg 90%
    11:00 -20°C° 0.2 mm 6 mps 759 mmHg 89%
    12:00 -18°C° 0.2 mm 7 mps 759 mmHg 87%
    13:00 -18°C° 0.2 mm 7 mps 759 mmHg 87%
    14:00 -18°C° 0.2 mm 7 mps 758 mmHg 87%
    15:00 -18°C° 0.2 mm 7 mps 758 mmHg 87%
    16:00 -18°C° 0.2 mm 7 mps 758 mmHg 87%
    17:00 -18°C° 0.2 mm 7 mps 758 mmHg 87%
    18:00 -18°C° 0.2 mm 7 mps 757 mmHg 87%
    19:00 -18°C° 0.2 mm 7 mps 757 mmHg 87%
    20:00 -18°C° 0.2 mm 7 mps 757 mmHg 86%
    21:00 -18°C° 0.2 mm 7 mps 756 mmHg 86%
    22:00 -18°C° 0.2 mm 7 mps 756 mmHg 86%
    23:00 -18°C° 0.2 mm 7 mps 755 mmHg 87%

    22 December, Saturday

    Time Temperature Precipitation Wind Pressure Humidity
    00:00 -18°C° 0.2 mm 7 mps 755 mmHg 87%
    01:00 -19°C° 0.2 mm 7 mps 755 mmHg 87%
    02:00 -18°C° 0.2 mm 6 mps 754 mmHg 88%
    03:00 -18°C° 0.2 mm 6 mps 754 mmHg 88%
    04:00 -18°C° 0.2 mm 6 mps 754 mmHg 88%
    05:00 -20°C° 0.2 mm 6 mps 754 mmHg 89%
    06:00 -20°C° 0.2 mm 6 mps 754 mmHg 89%
    07:00 -19°C° 0.2 mm 5 mps 754 mmHg 89%
    08:00 -19°C° 0.2 mm 5 mps 754 mmHg 90%
    09:00 -20°C° 0.2 mm 5 mps 755 mmHg 90%
    10:00 -20°C° 0.2 mm 5 mps 755 mmHg 90%
    11:00 -20°C° 0.2 mm 5 mps 755 mmHg 91%
    12:00 -19°C° 0.2 mm 5 mps 755 mmHg 91%
    13:00 -19°C° 0.2 mm 4 mps 756 mmHg 91%
    14:00 -19°C° 0.2 mm 4 mps 756 mmHg 91%
    15:00 -18°C° 0.2 mm 3 mps 756 mmHg 92%
    16:00 -19°C° 0.1 mm 3 mps 756 mmHg 93%
    17:00 -19°C° 0.1 mm 3 mps 757 mmHg 93%
    18:00 -19°C° 0.1 mm 3 mps 757 mmHg 94%
    19:00 -19°C° 0.1 mm 2 mps 758 mmHg 95%
    20:00 -20°C° 0.1 mm 2 mps 758 mmHg 95%
    21:00 -21°C° 0.1 mm 2 mps 759 mmHg 95%
    22:00 -23°C° 0.1 mm 2 mps 759 mmHg 95%
    23:00 -25°C° 0.1 mm 2 mps 759 mmHg 96%

    23 December, Sunday

    Time Temperature Precipitation Wind Pressure Humidity
    00:00 -27°C° 0.1 mm 2 mps 760 mmHg 96%
    01:00 -28°C° 0 mm 2 mps 760 mmHg 94%
    02:00 -30°C° 0 mm 2 mps 761 mmHg 93%
    03:00 -32°C° 0 mm 2 mps 761 mmHg 91%
    04:00 -35°C° 0 mm 2 mps 762 mmHg 91%
    05:00 -36°C° 0 mm 2 mps 762 mmHg 91%
    06:00 -40°C° 0 mm 3 mps 763 mmHg 90%
    07:00 -39°C° 0 mm 2 mps 763 mmHg 90%
    08:00 -39°C° 0 mm 2 mps 764 mmHg 89%
    09:00 -40°C° 0 mm 2 mps 765 mmHg 89%
    10:00 -39°C° 0 mm 2 mps 765 mmHg 88%
    11:00 -40°C° 0 mm 3 mps 766 mmHg 88%
    12:00 -39°C° 0 mm 3 mps 766 mmHg 87%
    13:00 -37°C° 0 mm 2 mps 767 mmHg 88%
    14:00 -38°C° 0 mm 2 mps 768 mmHg 89%
    15:00 -38°C° 0 mm 2 mps 768 mmHg 89%
    16:00 -39°C° 0 mm 2 mps 769 mmHg 90%
    17:00 -39°C° 0 mm 2 mps 770 mmHg 90%
    18:00 -40°C° 0 mm 2 mps 771 mmHg 90%
    19:00 -41°C° 0 mm 2 mps 771 mmHg 90%
    20:00 -41°C° 0 mm 2 mps 772 mmHg 89%
    21:00 -41°C° 0 mm 2 mps 773 mmHg 89%
    22:00 -41°C° 0 mm 2 mps 773 mmHg 88%
    23:00 -41°C° 0 mm 2 mps 774 mmHg 88%

    24 December, Monday

    Time Temperature Precipitation Wind Pressure Humidity
    00:00 -38°C° 0 mm 1 mps 774 mmHg 88%
    01:00 -38°C° 0 mm 1 mps 774 mmHg 87%
    02:00 -38°C° 0 mm 1 mps 775 mmHg 87%
    03:00 -38°C° 0 mm 1 mps 775 mmHg 86%
    04:00 -38°C° 0 mm 1 mps 776 mmHg 86%
    05:00 -38°C° 0 mm 1 mps 776 mmHg 86%
    06:00 -38°C° 0 mm 1 mps 777 mmHg 86%
    07:00 -38°C° 0 mm 1 mps 777 mmHg 86%
    08:00 -38°C° 0 mm 1 mps 778 mmHg 86%
    09:00 -38°C° 0 mm 1 mps 778 mmHg 85%
    10:00 -35°C° 0 mm 0 mps 778 mmHg 85%
    11:00 -33°C° 0 mm 0 mps 778 mmHg 86%
    12:00 -32°C° 0 mm 0 mps 779 mmHg 86%
    13:00 -32°C° 0 mm 0 mps 779 mmHg 87%
    14:00 -32°C° 0 mm 0 mps 779 mmHg 88%
    15:00 -32°C° 0 mm 0 mps 779 mmHg 88%
    16:00 -33°C° 0 mm 0 mps 779 mmHg 88%
    17:00 -34°C° 0 mm 0 mps 779 mmHg 87%
    18:00 -34°C° 0 mm 0 mps 779 mmHg 86%
    19:00 -34°C° 0 mm 0 mps 779 mmHg 86%
    20:00 -34°C° 0 mm 0 mps 779 mmHg 86%
    21:00 -34°C° 0 mm 0 mps 779 mmHg 86%
    22:00 -34°C° 0 mm 0 mps 779 mmHg 86%
    23:00 -34°C° 0 mm 0 mps 779 mmHg 86%
    Show more